TimeCDT,TemperatureF,Dew PointF,Humidity,Sea Level PressureIn,VisibilityMPH,Wind Direction,Wind SpeedMPH,Gust SpeedMPH,PrecipitationIn,Events,Conditions,WindDirDegrees,DateUTC
12:50 AM,60,40,35,29.78,6,Calm,Calm,,,,,,2012-10-06 05:50:00
2:48 AM,46.4,35.6,66,30.26,10.0,SE,3.5,-,N/A,,Clear,130,2012-10-06 07:48:00
3:44 AM,46.4,39.2,76,29.91,10.0,Calm,Calm,-,N/A,,Clear,0,2012-10-06 08:44:00
3:55 AM,56,39,40,29.85,6,Calm,Calm,,,,,,2012-10-06 08:55:00
4:48 AM,46.4,37.4,71,30.24,10.0,NW,4.6,-,N/A,,Clear,310,2012-10-06 09:48:00
5:46 AM,42.8,37.4,81,30.24,10.0,NNW,4.6,-,N/A,,Clear,340,2012-10-06 10:46:00
6:45 AM,44.6,37.4,76,29.91,10.0,Calm,Calm,-,N/A,,Clear,0,2012-10-06 11:45:00
6:50 AM,48,40,64,29.94,9,Calm,Calm,,,,,,2012-10-06 11:50:00
7:44 AM,39.2,33.8,81,30.26,14.0,Calm,Calm,-,N/A,,Clear,0,2012-10-06 12:44:00
8:51 AM,50.0,41.0,71,30.28,14.0,Calm,Calm,-,N/A,,Clear,0,2012-10-06 13:51:00
9:49 AM,57.2,41.0,55,29.94,14.0,Calm,Calm,-,N/A,,Clear,0,2012-10-06 14:49:00
9:50 AM,57,45,53,30.02,19,Calm,Calm,,,,,,2012-10-06 14:50:00
10:54 AM,64.4,37.4,37,30.28,14.0,Calm,Calm,-,N/A,,Clear,0,2012-10-06 15:54:00
11:44 AM,69.8,35.6,28,30.27,14.0,Calm,Calm,-,N/A,,Clear,0,2012-10-06 16:44:00
12:43 PM,73.4,33.8,23,29.85,14.0,SE,4.6,-,N/A,,Clear,140,2012-10-06 17:43:00
12:58 PM,76,41,18,29.96,25,Calm,Calm,,,,,,2012-10-06 17:58:00
1:49 PM,78.8,30.2,17,30.20,14.0,WNW,6.9,-,N/A,,Clear,300,2012-10-06 18:49:00
2:44 PM,77.0,26.6,16,30.16,14.0,South,6.9,-,N/A,,Clear,180,2012-10-06 19:44:00
3:43 PM,78.8,26.6,15,29.82,14.0,WSW,4.6,-,N/A,,Clear,250,2012-10-06 20:43:00
3:58 PM,82,35,10,29.79,31,ESE,2.2,,,,,120,2012-10-06 20:58:00
4:46 PM,80.6,24.8,13,30.12,14.0,NW,5.8,-,N/A,,Clear,320,2012-10-06 21:46:00
5:47 PM,80.6,26.6,14,30.17,14.0,WSW,4.6,-,N/A,,Clear,250,2012-10-06 22:47:00
6:45 PM,78.8,24.8,14,29.80,14.0,NNW,4.6,-,N/A,,Clear,330,2012-10-06 23:45:00
6:55 PM,79,39,14,29.67,25,SE,2.2,,,,,140,2012-10-06 23:55:00
7:42 PM,73.4,30.2,20,30.12,14.0,Calm,Calm,-,N/A,,Clear,0,2012-10-07 00:42:00
8:46 PM,64.4,30.2,28,30.14,14.0,Calm,Calm,-,N/A,,Clear,0,2012-10-07 01:46:00
9:50 PM,68,41,26,29.66,6,WNW,2.2,,,,Scattered Clouds,300,2012-10-07 02:50:00
9:51 PM,62.6,32.0,32,30.16,14.0,Calm,Calm,-,N/A,,Clear,0,2012-10-07 02:51:00